Location: La Oliva
(42.2466°N, 2.9955°E)
Time: 11:06:50
(UTC+00:00)

NOSS 0 Rocket - Pass Details

Date: 22 April 2021
Orbit: 935 x 955 km, 70.0° (Epoch: 10 May)

Event Time Altitude Azimuth Distance (km) Brightness Sun altitude
Rises 20:11:04 0° 330° (NNW) 3,627 8.2 -16.3°
Reaches altitude 10° 20:13:38 10° 327° (NNW) 2,681 7.4 -16.7°
Maximum altitude 20:19:43 59° 250° (WSW) 1,096 4.4 -17.6°
Enters shadow 20:24:40 16° 175° (S) 2,271 5.5 -18.4°
